Starlink 32600

operational
NORAD ID: 62178 Int'l Des: 2024-225 Owner: SPXS Country: US Constellation: starlink
LEOCIRCULAR

Über Starlink 32600

Beschreibung wird geladen...

Live-Position

3D-Globus wird geladen...

Nächste Überflüge

Höhenverlauf

Altitude vs Time

uPlot chart will show altitude changes over time

Zweizeiliger Elementsatz

1 62178U 24225R 25304.85308196 .00006037 00000-0 51323-3 0 9996
2 62178 69.9992 119.4071 0003242 275.1424 84.9365 14.98335616 50825
Epoch: 31. Okt. 2025 • Age: 16 hours

Aktueller Status

Höhe 574.7 km
Geschwindigkeit 7.57 km/s
Subsatellitenpunkt -3.92°S, 111.91°W
Startdatum 30. Nov. 2024
Alter 0.9 years
Typ internet

Technische Details

Klassifizierung Payload
Masse 730.00 kg
Trockenmasse 700.00 kg
Gesamtmasse 730.00 kg
Länge 0.30 m
Durchmesser 4.10 m
Spannweite 29.00 m
Form Box + pan
Hersteller SPXS
Bus-Typ Starlink V2M
Phasenstatus In Orbit
Besitzer/Staat SPXS/US

Große Konstellationen

Loading constellations...